Date String (YYYY-MM-DD hh:mm:ss) UTC,Instrument flags,absolute air pressure of the measurement (hPa),sample flow rate (lpm),inlet stack bypass flow (lpm),air temperature of the measurement (°C),ambient temperature measured by the external sensor (°C),aerosol sample conditioner tube jacket temperature (°C),OPC LED temperature (°C),internal box temperature (°C),relative humidity of the measurement (%),span deviation,mass concentration of particles derived from Lorenz-Mie calculation of OPC scattering (μg/m³),mass concentration of particles derived from Lorenz-Mie calculation of OPC scattering (μg/m³),mass concentration of particles derived from Lorenz-Mie calculation of OPC scattering (μg/m³)
DateTimeUTC,F1_M11,P_M11,Q1_M11,Q2_M11,T1_M11,T2_M11,T3_M11,T4_M11,T5_M11,U1_M11,ZSPAN_M11,X0_M11,X2_M11,X1_M11
2023-09-29 14:00:00,SystemResetWarning,0829.0,5.00,000.00,028.9,027.6,000.0,037.4,030.7,22.7,0002.1,0020.99,0006.75,0004.76
2023-09-29 14:01:00,SystemResetWarning,0829.0,5.00,000.00,029.0,027.7,000.0,037.4,030.7,22.6,0002.3,0020.68,0006.73,0004.76
2023-09-29 14:02:00,SystemResetWarning,0829.0,5.00,000.00,029.0,027.7,000.0,037.4,030.7,22.7,0002.9,0020.46,0006.73,0004.77
2023-09-29 14:03:00,SystemResetWarning,0829.0,5.00,000.00,029.0,027.8,000.0,037.4,030.7,22.8,0003.3,0019.05,0006.62,0004.77
2023-09-29 14:04:00,SystemResetWarning,0829.1,5.01,000.00,029.0,027.8,000.0,037.5,030.8,22.5,0000.6,0019.24,0006.66,0004.76
2023-09-29 14:05:00,SystemResetWarning,0829.1,5.00,000.00,029.1,027.9,000.0,037.5,030.8,22.5,0001.8,0019.45,0006.67,0004.77
2023-09-29 14:06:00,SystemResetWarning,0829.1,5.00,000.00,029.1,027.9,000.0,037.5,030.8,22.7,0001.5,0019.86,0006.60,0004.77
2023-09-29 14:07:00,SystemResetWarning,0829.1,5.00,000.00,029.1,027.9,000.0,037.5,030.8,22.7,0000.0,0020.09,0006.61,0004.76
2023-09-29 14:08:00,SystemResetWarning,0829.1,5.00,000.00,029.1,028.0,000.0,037.5,030.9,22.7,0000.0,0018.55,0006.64,0004.75
2023-09-29 14:09:00,SystemResetWarning,0829.1,4.99,000.00,029.2,027.3,000.0,037.5,030.9,22.7,0000.0,0018.67,0006.59,0004.74
2023-09-29 14:10:00,SystemResetWarning,0829.1,5.00,000.00,029.1,025.6,000.0,037.5,030.7,23.2,0000.0,0019.07,0006.54,0004.73
2023-09-29 14:11:00,SystemResetWarning,0829.1,5.00,000.00,029.0,024.7,000.0,037.4,030.5,23.5,0000.0,0019.62,0006.57,0004.72
2023-09-29 14:12:00,SystemResetWarning,0829.1,5.02,000.00,028.9,024.8,000.0,037.4,030.3,23.6,0000.0,0019.54,0006.64,0004.72
2023-09-29 14:13:00,SystemResetWarning,0829.1,5.00,000.00,028.8,025.1,000.0,037.4,030.2,23.7,0000.0,0019.47,0006.59,0004.70
2023-09-29 14:14:00,SystemResetWarning,0829.1,5.00,000.00,028.7,025.5,000.0,037.3,030.2,23.9,0000.0,0020.33,0006.58,0004.72
2023-09-29 14:15:00,SystemResetWarning,0829.1,5.01,000.00,028.7,025.8,000.0,037.3,030.2,23.9,0000.0,0019.49,0006.55,0004.73
2023-09-29 14:16:00,SystemResetWarning,0829.1,5.00,000.00,028.7,026.2,000.0,037.3,030.3,23.9,0000.0,0018.94,0006.60,0004.73
2023-09-29 14:17:00,SystemResetWarning,0829.1,5.00,000.00,028.7,026.4,000.0,037.3,030.3,23.9,0000.0,0018.03,0006.61,0004.74
2023-09-29 14:18:00,SystemResetWarning,0829.1,5.00,000.00,028.7,026.7,000.0,037.3,030.3,24.0,0000.0,0017.76,0006.63,0004.74
2023-09-29 14:19:00,SystemResetWarning,0829.1,5.00,000.00,028.7,026.9,000.0,037.3,030.4,24.1,0000.0,0018.11,0006.61,0004.76
2023-09-29 14:20:00,SystemResetWarning,0829.1,5.00,000.00,028.7,027.0,000.0,037.3,030.4,24.1,0000.0,0018.00,0006.57,0004.76
2023-09-29 14:21:00,SystemResetWarning,0829.1,5.00,000.00,028.7,027.2,000.0,037.3,030.4,24.2,0000.0,0019.14,0006.67,0004.77
2023-09-29 14:22:00,SystemResetWarning,0829.1,5.00,000.00,028.8,027.3,000.0,037.3,030.5,24.1,0000.0,0019.67,0006.78,0004.79
2023-09-29 14:23:00,SystemResetWarning,0829.2,5.00,000.00,028.8,027.4,000.0,037.3,030.5,24.0,0000.0,0019.63,0006.70,0004.80
2023-09-29 14:24:00,SystemResetWarning,0829.2,5.00,000.00,028.8,027.5,000.0,037.3,030.6,24.0,0000.0,0019.73,0006.74,0004.81
2023-09-29 14:25:00,SystemResetWarning,0829.2,5.00,000.00,028.8,027.6,000.0,037.3,030.6,24.0,0000.0,0020.11,0006.82,0004.81
2023-09-29 14:26:00,SystemResetWarning,0829.2,5.00,000.00,028.9,027.6,000.0,037.3,030.6,24.3,0000.0,0021.20,0006.85,0004.80
2023-09-29 14:27:00,SystemResetWarning,0829.2,5.00,000.00,028.9,027.7,000.0,037.3,030.7,24.3,0000.0,0021.97,0006.82,0004.81
2023-09-29 14:28:00,SystemResetWarning,0829.3,4.99,000.00,028.9,027.8,000.0,037.3,030.7,24.0,0000.0,0022.29,0006.80,0004.83
2023-09-29 14:29:00,SystemResetWarning,0829.2,4.99,000.00,028.9,027.8,000.0,037.4,030.7,24.1,0000.0,0022.97,0006.78,0004.83
2023-09-29 14:30:00,SystemResetWarning,0829.2,5.00,000.00,029.0,027.9,000.0,037.4,030.7,24.1,0000.0,0025.44,0006.81,0004.83
2023-09-29 14:31:00,SystemResetWarning,0829.2,5.00,000.00,029.0,027.9,000.0,037.4,030.8,24.0,0000.0,0026.49,0006.87,0004.86
2023-09-29 14:32:00,SystemResetWarning,0829.2,5.00,000.00,029.0,027.9,000.0,037.4,030.8,24.4,0000.0,0025.19,0006.84,0004.86
2023-09-29 14:33:00,SystemResetWarning,0829.3,5.00,000.00,029.1,027.9,000.0,037.4,030.8,24.7,0000.0,0025.09,0006.78,0004.86
2023-09-29 14:34:00,SystemResetWarning,0829.2,4.99,000.00,029.1,026.5,000.0,037.4,030.8,24.8,0000.0,0025.18,0006.79,0004.87
2023-09-29 14:35:00,SystemResetWarning,0829.2,5.01,000.00,029.0,024.9,000.0,037.3,030.5,25.2,0000.0,0025.19,0006.74,0004.88
2023-09-29 14:36:00,SystemResetWarning,0829.3,5.00,000.00,028.9,024.8,000.0,037.3,030.4,25.3,0000.0,0024.56,0006.67,0004.89
2023-09-29 14:37:00,SystemResetWarning,0829.3,5.01,000.00,028.8,025.1,000.0,037.3,030.3,25.6,-001.5,0024.18,0006.70,0004.91
2023-09-29 14:38:00,SystemResetWarning,0829.3,5.00,000.00,028.7,025.4,000.0,037.3,030.2,25.9,-002.7,0023.38,0006.73,0004.92
2023-09-29 14:39:00,SystemResetWarning,0829.3,5.00,000.00,028.7,025.8,000.0,037.3,030.2,26.0,-000.2,0023.41,0006.86,0004.93
2023-09-29 14:40:00,SystemResetWarning,0829.3,5.00,000.00,028.7,026.1,000.0,037.3,030.3,26.5,0000.0,0023.81,0006.96,0004.93
2023-09-29 14:41:00,SystemResetWarning,0829.3,5.00,000.00,028.7,026.4,000.0,037.3,030.3,26.5,0000.0,0021.68,0006.94,0004.93
2023-09-29 14:42:00,SystemResetWarning,0829.3,5.00,000.00,028.7,026.7,000.0,037.3,030.4,26.6,0000.0,0021.32,0006.92,0004.92
2023-09-29 14:43:00,SystemResetWarning,0829.3,5.00,000.00,028.7,026.9,000.0,037.3,030.4,26.8,0000.0,0021.49,0006.91,0004.92
2023-09-29 14:44:00,SystemResetWarning,0829.3,5.00,000.00,028.7,027.1,000.0,037.3,030.5,26.8,0000.0,0020.99,0006.95,0004.92
2023-09-29 14:45:00,SystemResetWarning,0829.4,5.00,000.00,028.7,027.2,000.0,037.3,030.5,26.8,0000.0,0021.39,0006.99,0004.92
2023-09-29 14:46:00,SystemResetWarning,0829.4,5.01,000.00,028.8,027.4,000.0,037.3,030.5,26.3,0000.0,0022.17,0007.07,0004.93
2023-09-29 14:47:00,SystemResetWarning,0829.4,4.99,000.00,028.8,027.5,000.0,037.3,030.6,26.4,0000.0,0021.82,0007.12,0004.94
2023-09-29 14:48:00,SystemResetWarning,0829.4,4.99,000.00,028.8,027.6,000.0,037.3,030.6,26.3,0000.0,0021.23,0007.09,0004.94
2023-09-29 14:49:00,SystemResetWarning,0829.4,5.00,000.00,028.9,027.7,000.0,037.3,030.7,25.9,0000.0,0021.68,0007.14,0004.94
2023-09-29 14:50:00,SystemResetWarning,0829.4,5.00,000.00,028.9,027.7,000.0,037.3,030.7,26.0,0000.0,0022.16,0007.16,0004.94
2023-09-29 14:51:00,SystemResetWarning,0829.4,5.01,000.00,028.9,027.8,000.0,037.3,030.7,25.8,0000.0,0022.66,0007.16,0004.94
2023-09-29 14:52:00,SystemResetWarning,0829.3,5.00,000.00,029.0,027.5,000.0,037.3,030.8,26.0,-000.1,0024.61,0007.23,0004.96
2023-09-29 14:53:00,SystemResetWarning,0829.4,4.99,000.00,028.9,025.9,000.0,037.3,030.6,26.2,0000.0,0025.15,0007.27,0004.99
2023-09-29 14:54:00,SystemResetWarning,0829.3,5.02,000.00,028.8,024.9,000.0,037.2,030.4,26.1,0000.5,0024.77,0007.35,0005.01
2023-09-29 14:55:00,SystemResetWarning,0829.4,5.00,000.00,028.8,025.0,000.0,037.2,030.3,26.2,0000.0,0024.98,0007.32,0005.02
2023-09-29 14:56:00,SystemResetWarning,0829.4,4.99,000.00,028.7,025.3,000.0,037.2,030.2,26.4,0000.0,0025.03,0007.33,0005.04
2023-09-29 14:57:00,SystemResetWarning,0829.4,5.00,000.00,028.6,025.6,000.0,037.2,030.2,26.1,0000.0,0024.03,0007.26,0005.04
2023-09-29 14:58:00,SystemResetWarning,0829.4,5.01,000.00,028.6,026.0,000.0,037.2,030.2,26.1,0000.0,0024.18,0007.29,0005.04
2023-09-29 14:59:00,SystemResetWarning,0829.4,5.00,000.00,028.6,026.3,000.0,037.2,030.3,26.1,0000.0,0024.56,0007.31,0005.02
